Powrót do katalogu

RAZAKSAT

AktywnyNaukaLEO
NORAD 35578·PAYLOAD·🇲🇾 Malaysia

Wystrzelony Jul 14, 2009 z Ronald Reagan Space and Missile Test Range

Loading…

Następne Przeloty (najbliższe 24 godziny)

TLE

ŚwieżeSource: Space-Track

Epoka: Sep 13, 2026, 15:12 UTC

1 35578U 09037A   26256.63396649  .00000957  00000-0  61857-4 0  9996
2 35578   8.9872 276.5889 0015920 216.7824 143.1273 14.70409502921933

Śledź RAZAKSAT w czasie rzeczywistym z AllMySat

Download on the App Store